Time,TemperatureF,DewpointF,PressureIn,WindDirection,WindDirectionDegrees,WindSpeedMPH,WindSpeedGustMPH,Humidity,HourlyPrecipIn,Conditions,Clouds,dailyrainin,SoftwareType,DateUTC
2013-05-15 00:14:00,59.6,56.0,30.16,SE,146,0.0,0.0,87,0.00,,,0.00,weatherlink.com 1.10,2013-05-15 05:14:00,
2013-05-15 00:29:00,58.3,55.0,30.16,SE,146,0.0,0.0,88,0.00,,,0.00,weatherlink.com 1.10,2013-05-15 05:29:00,
2013-05-15 00:44:00,57.7,55.0,30.16,SE,146,0.0,0.0,91,0.00,,,0.00,weatherlink.com 1.10,2013-05-15 05:44:00,
2013-05-15 00:59:00,57.4,55.0,30.15,SE,146,0.0,0.0,92,0.00,,,0.00,weatherlink.com 1.10,2013-05-15 05:59:00,
2013-05-15 01:14:00,57.5,55.0,30.15,SE,146,0.0,0.0,92,0.00,,,0.00,weatherlink.com 1.10,2013-05-15 06:14:00,
2013-05-15 01:29:00,57.3,55.0,30.15,SSE,147,0.0,0.0,93,0.00,,,0.00,weatherlink.com 1.10,2013-05-15 06:29:00,
2013-05-15 01:44:00,56.6,54.0,30.14,SE,146,0.0,0.0,92,0.00,,,0.00,weatherlink.com 1.10,2013-05-15 06:44:00,
2013-05-15 01:59:00,55.9,54.0,30.15,SE,146,0.0,0.0,94,0.00,,,0.00,weatherlink.com 1.10,2013-05-15 06:59:00,
2013-05-15 02:14:00,55.7,54.0,30.15,SE,146,0.0,0.0,95,0.00,,,0.00,weatherlink.com 1.10,2013-05-15 07:14:00,
2013-05-15 02:29:00,55.2,54.0,30.15,SE,146,0.0,0.0,95,0.00,,,0.00,weatherlink.com 1.10,2013-05-15 07:29:00,
2013-05-15 02:44:00,55.2,54.0,30.15,SE,146,0.0,0.0,96,0.00,,,0.00,weatherlink.com 1.10,2013-05-15 07:44:00,
2013-05-15 02:59:00,55.2,54.0,30.15,SE,146,0.0,0.0,96,0.00,,,0.00,weatherlink.com 1.10,2013-05-15 07:59:00,
2013-05-15 03:14:00,54.9,54.0,30.14,SE,146,0.0,0.0,96,0.00,,,0.00,weatherlink.com 1.10,2013-05-15 08:14:00,
2013-05-15 03:29:00,55.5,54.0,30.15,SE,146,0.0,0.0,96,0.00,,,0.00,weatherlink.com 1.10,2013-05-15 08:29:00,
2013-05-15 03:44:00,55.7,55.0,30.15,SE,146,0.0,0.0,96,0.00,,,0.00,weatherlink.com 1.10,2013-05-15 08:44:00,
2013-05-15 03:59:00,55.7,55.0,30.15,SE,146,0.0,0.0,96,0.00,,,0.00,weatherlink.com 1.10,2013-05-15 08:59:00,
2013-05-15 04:14:00,54.9,54.0,30.16,SE,146,0.0,0.0,96,0.00,,,0.00,weatherlink.com 1.10,2013-05-15 09:14:00,
2013-05-15 04:29:00,54.8,54.0,30.16,SSE,147,0.0,0.0,96,0.00,,,0.00,weatherlink.com 1.10,2013-05-15 09:29:00,
2013-05-15 04:44:00,54.7,54.0,30.16,SE,146,0.0,0.0,96,0.00,,,0.00,weatherlink.com 1.10,2013-05-15 09:44:00,
2013-05-15 05:00:00,54.5,53.0,30.17,SE,146,0.0,0.0,96,0.00,,,0.00,weatherlink.com 1.10,2013-05-15 10:00:00,
2013-05-15 05:15:00,54.3,54.0,30.17,SE,146,0.0,0.0,97,0.00,,,0.00,weatherlink.com 1.10,2013-05-15 10:15:00,
2013-05-15 05:30:00,54.0,53.0,30.18,SE,146,0.0,0.0,97,0.00,,,0.00,weatherlink.com 1.10,2013-05-15 10:30:00,
2013-05-15 05:45:00,53.5,53.0,30.18,SSE,147,0.0,0.0,97,0.00,,,0.00,weatherlink.com 1.10,2013-05-15 10:45:00,
2013-05-15 06:00:00,53.1,52.0,30.18,SE,146,0.0,0.0,97,0.00,,,0.00,weatherlink.com 1.10,2013-05-15 11:00:00,
2013-05-15 06:15:00,53.2,52.0,30.19,SE,146,0.0,0.0,97,0.00,,,0.00,weatherlink.com 1.10,2013-05-15 11:15:00,
2013-05-15 06:30:00,53.9,53.0,30.19,SE,146,0.0,0.0,97,0.00,,,0.00,weatherlink.com 1.10,2013-05-15 11:30:00,
2013-05-15 06:45:00,56.5,56.0,30.19,SE,146,0.0,0.0,97,0.00,,,0.00,weatherlink.com 1.10,2013-05-15 11:45:00,
2013-05-15 07:00:00,59.1,58.0,30.19,SE,146,0.0,0.0,97,0.00,,,0.00,weatherlink.com 1.10,2013-05-15 12:00:00,
2013-05-15 07:45:00,68.0,63.0,30.20,SW,219,0.0,1.0,83,0.00,,,0.00,weatherlink.com 1.10,2013-05-15 12:45:00,
2013-05-15 08:00:00,68.8,64.0,30.20,SW,214,0.0,3.0,83,0.00,,,0.00,weatherlink.com 1.10,2013-05-15 13:00:00,
2013-05-15 08:15:00,70.4,64.0,30.20,NNE,12,0.0,3.0,80,0.00,,,0.00,weatherlink.com 1.10,2013-05-15 13:15:00,
2013-05-15 08:30:00,71.2,64.0,30.20,SW,226,0.0,4.0,79,0.00,,,0.00,weatherlink.com 1.10,2013-05-15 13:30:00,
2013-05-15 09:00:00,74.7,64.0,30.20,West,271,1.0,4.0,70,0.00,,,0.00,weatherlink.com 1.10,2013-05-15 14:00:00,
2013-05-15 09:15:00,75.6,63.0,30.20,North,11,3.0,5.0,65,0.00,,,0.00,weatherlink.com 1.10,2013-05-15 14:15:00,
2013-05-15 09:30:00,77.9,61.0,30.19,North,353,3.0,5.0,56,0.00,,,0.00,weatherlink.com 1.10,2013-05-15 14:30:00,
2013-05-15 10:00:00,79.3,60.0,30.19,SSE,160,3.0,4.0,52,0.00,,,0.00,weatherlink.com 1.10,2013-05-15 15:00:00,
2013-05-15 10:16:00,79.0,61.0,30.19,North,9,4.0,7.0,54,0.00,,,0.00,weatherlink.com 1.10,2013-05-15 15:16:00,
2013-05-15 10:31:00,78.7,60.0,30.19,SSW,201,0.0,7.0,53,0.00,,,0.00,weatherlink.com 1.10,2013-05-15 15:31:00,
2013-05-15 10:46:00,80.5,61.0,30.19,SW,217,3.0,7.0,52,0.00,,,0.00,weatherlink.com 1.10,2013-05-15 15:46:00,
2013-05-15 11:01:00,81.1,62.0,30.19,SSW,198,3.0,4.0,53,0.00,,,0.00,weatherlink.com 1.10,2013-05-15 16:01:00,
2013-05-15 11:31:00,81.8,61.0,30.18,NW,323,0.0,5.0,49,0.00,,,0.00,weatherlink.com 1.10,2013-05-15 16:31:00,
2013-05-15 12:01:00,82.2,60.0,30.16,North,354,0.0,4.0,47,0.00,,,0.00,weatherlink.com 1.10,2013-05-15 17:01:00,
2013-05-15 12:16:00,83.6,61.0,30.15,ESE,110,0.0,5.0,46,0.00,,,0.00,weatherlink.com 1.10,2013-05-15 17:16:00,
2013-05-15 12:31:00,84.5,62.0,30.14,NE,52,0.0,5.0,47,0.00,,,0.00,weatherlink.com 1.10,2013-05-15 17:31:00,
2013-05-15 13:01:00,84.1,60.0,30.13,SW,231,1.0,5.0,44,0.00,,,0.00,weatherlink.com 1.10,2013-05-15 18:01:00,
2013-05-15 13:16:00,85.3,60.0,30.13,SW,229,2.0,6.0,43,0.00,,,0.00,weatherlink.com 1.10,2013-05-15 18:16:00,
2013-05-15 13:46:00,85.9,60.0,30.12,SW,217,1.0,5.0,41,0.00,,,0.00,weatherlink.com 1.10,2013-05-15 18:46:00,
2013-05-15 14:16:00,85.5,60.0,30.10,NE,53,1.0,4.0,43,0.00,,,0.00,weatherlink.com 1.10,2013-05-15 19:16:00,
2013-05-15 14:31:00,86.6,60.0,30.09,SE,132,0.0,2.0,41,0.00,,,0.00,weatherlink.com 1.10,2013-05-15 19:31:00,
2013-05-15 15:01:00,85.4,60.0,30.08,NNW,341,3.0,6.0,42,0.00,,,0.00,weatherlink.com 1.10,2013-05-15 20:01:00,
2013-05-15 15:16:00,85.7,60.0,30.07,ESE,114,2.0,4.0,42,0.00,,,0.00,weatherlink.com 1.10,2013-05-15 20:16:00,
2013-05-15 15:31:00,87.1,62.0,30.07,WSW,251,1.0,8.0,43,0.00,,,0.00,weatherlink.com 1.10,2013-05-15 20:31:00,
2013-05-15 16:01:00,86.8,61.0,30.06,ENE,71,1.0,6.0,42,0.00,,,0.00,weatherlink.com 1.10,2013-05-15 21:01:00,
2013-05-15 16:16:00,86.5,61.0,30.05,West,269,0.0,4.0,42,0.00,,,0.00,weatherlink.com 1.10,2013-05-15 21:16:00,
2013-05-15 16:31:00,86.7,62.0,30.05,ESE,120,2.0,4.0,43,0.00,,,0.00,weatherlink.com 1.10,2013-05-15 21:31:00,
2013-05-15 16:46:00,86.0,62.0,30.04,SSE,159,2.0,4.0,44,0.00,,,0.00,weatherlink.com 1.10,2013-05-15 21:46:00,
2013-05-15 17:01:00,87.0,61.0,30.03,SW,217,1.0,2.0,41,0.00,,,0.00,weatherlink.com 1.10,2013-05-15 22:01:00,
2013-05-15 17:16:00,86.8,61.0,30.03,SSW,201,0.0,3.0,42,0.00,,,0.00,weatherlink.com 1.10,2013-05-15 22:16:00,
2013-05-15 17:31:00,86.1,61.0,30.03,SSE,148,1.0,3.0,43,0.00,,,0.00,weatherlink.com 1.10,2013-05-15 22:31:00,
2013-05-15 17:46:00,86.3,61.0,30.03,SE,141,0.0,2.0,43,0.00,,,0.00,weatherlink.com 1.10,2013-05-15 22:46:00,
2013-05-15 18:01:00,85.5,61.0,30.02,ESE,110,0.0,3.0,44,0.00,,,0.00,weatherlink.com 1.10,2013-05-15 23:01:00,
2013-05-15 18:31:00,83.2,61.0,30.02,SSE,148,0.0,2.0,47,0.00,,,0.00,weatherlink.com 1.10,2013-05-15 23:31:00,
2013-05-15 19:32:00,75.6,58.0,30.04,SSE,152,0.0,3.0,55,0.00,,,0.00,weatherlink.com 1.10,2013-05-16 00:32:00,
2013-05-15 19:47:00,74.4,59.0,30.04,SE,145,0.0,3.0,58,0.00,,,0.00,weatherlink.com 1.10,2013-05-16 00:47:00,
2013-05-15 20:02:00,73.3,59.0,30.04,SW,215,0.0,1.0,61,0.00,,,0.00,weatherlink.com 1.10,2013-05-16 01:02:00,
2013-05-15 20:17:00,72.3,59.0,30.04,SW,214,0.0,2.0,63,0.00,,,0.00,weatherlink.com 1.10,2013-05-16 01:17:00,
2013-05-15 20:32:00,72.2,58.0,30.04,South,173,0.0,3.0,62,0.00,,,0.00,weatherlink.com 1.10,2013-05-16 01:32:00,
2013-05-15 20:47:00,71.7,58.0,30.04,SSE,167,1.0,3.0,62,0.00,,,0.00,weatherlink.com 1.10,2013-05-16 01:47:00,
2013-05-15 21:02:00,71.2,57.0,30.05,ESE,104,2.0,2.0,61,0.00,,,0.00,weatherlink.com 1.10,2013-05-16 02:02:00,
2013-05-15 21:17:00,71.1,57.0,30.05,South,190,0.0,2.0,62,0.00,,,0.00,weatherlink.com 1.10,2013-05-16 02:17:00,
2013-05-15 21:32:00,70.4,57.0,30.06,SSE,159,0.0,0.0,63,0.00,,,0.00,weatherlink.com 1.10,2013-05-16 02:32:00,
2013-05-15 21:47:00,69.6,57.0,30.05,SSE,162,0.0,1.0,64,0.00,,,0.00,weatherlink.com 1.10,2013-05-16 02:47:00,
2013-05-15 22:02:00,69.4,57.0,30.05,SSW,210,0.0,2.0,65,0.00,,,0.00,weatherlink.com 1.10,2013-05-16 03:02:00,
2013-05-15 22:17:00,68.9,57.0,30.06,South,172,0.0,1.0,66,0.00,,,0.00,weatherlink.com 1.10,2013-05-16 03:17:00,
2013-05-15 22:32:00,68.6,56.0,30.05,SSE,155,0.0,1.0,65,0.00,,,0.00,weatherlink.com 1.10,2013-05-16 03:32:00,
2013-05-15 22:47:00,68.2,56.0,30.05,SSW,213,0.0,1.0,66,0.00,,,0.00,weatherlink.com 1.10,2013-05-16 03:47:00,
2013-05-15 23:02:00,67.9,56.0,30.05,SSE,148,0.0,1.0,65,0.00,,,0.00,weatherlink.com 1.10,2013-05-16 04:02:00,
2013-05-15 23:17:00,67.0,56.0,30.04,SSE,158,0.0,0.0,69,0.00,,,0.00,weatherlink.com 1.10,2013-05-16 04:17:00,
2013-05-15 23:32:00,65.7,56.0,30.04,SSE,158,0.0,0.0,72,0.00,,,0.00,weatherlink.com 1.10,2013-05-16 04:32:00,
2013-05-15 23:47:00,64.8,56.0,30.04,SSE,158,0.0,0.0,74,0.00,,,0.00,weatherlink.com 1.10,2013-05-16 04:47:00,